402P/LINEAR (2003)

Japanese version
Home page
Updated on October 17, 2020

---------------------------------------------------------------------

* Profile

Designation 402P/2002 T5
Discovery Date October 5, 2002
Magnitude 18.4 mag
Discoverer Lincoln Laboratory Near-Earth Asteroid Research project

* Orbital Elements

Epoch 2003 June 10.0 TT = JDT 2452800.5                                         
T 2003 June 27.85333 TT                                 Rudenko                 
q   3.9340554            (2000.0)            P               Q                  
n   0.05340169     Peri.  326.75881     -0.06659731     -0.90078643             
a   6.9839224      Node   123.33130     +0.99023709     -0.11245170             
e   0.4366983      Incl.   30.90463     +0.12245531     +0.41945015             
P  18.5                                                                         
From 1012 observations 2002 Oct. 5-2020 Aug. 19, mean residual 0".7.            

* Finding Charts

* Magnitudes Graph

        m1 = 8.0 + 5 log d + 10.0 log r

---------------------------------------------------------------------

The orbital elements are published on M.P.E.C. 2020-Q175.
The charts are made with StellaNavigator Ver.2.0 for Windows (AstroArts / ASCII).
The magnitudes graphs are made with Comet for Windows.

---------------------------------------------------------------------

Copyright(C) Seiichi Yoshida (comet@aerith.net). All rights reserved.